• In Uzbekistan
  • List of Countries
  • For 7 days
  • Water Temperature
  • Satellite Maps
  • Weather Map
  • Weather Widgets
  • user-avatar
    Login

    Hourly Weather Mozharovka

    Today, 16 July, Monday

    Time Temperature Precipitation Wind Pressure Humidity
    00:00 +21°C° 0.7 mm 2 mps 739 mmHg 85%
    01:00 +21°C° 0.1 mm 2 mps 739 mmHg 86%
    02:00 +20°C° 0.1 mm 2 mps 739 mmHg 86%
    03:00 +20°C° 0 mm 2 mps 739 mmHg 88%
    04:00 +20°C° 0.2 mm 2 mps 739 mmHg 88%
    05:00 +21°C° 0.2 mm 3 mps 739 mmHg 88%
    06:00 +21°C° 0.2 mm 3 mps 739 mmHg 88%
    07:00 +24°C° 0.7 mm 3 mps 739 mmHg 83%
    08:00 +25°C° 0.7 mm 4 mps 739 mmHg 78%
    09:00 +27°C° 0 mm 4 mps 739 mmHg 73%
    10:00 +28°C° 0.9 mm 5 mps 739 mmHg 68%
    11:00 +29°C° 0.9 mm 5 mps 739 mmHg 63%
    12:00 +30°C° 0.9 mm 5 mps 738 mmHg 58%
    13:00 +30°C° 1 mm 5 mps 738 mmHg 60%
    14:00 +30°C° 1 mm 5 mps 738 mmHg 60%
    15:00 +30°C° 1 mm 5 mps 738 mmHg 61%
    16:00 +29°C° 1 mm 4 mps 738 mmHg 65%
    17:00 +29°C° 1 mm 4 mps 737 mmHg 70%
    18:00 +28°C° 1 mm 3 mps 737 mmHg 74%
    19:00 +27°C° 0.2 mm 3 mps 737 mmHg 77%
    20:00 +25°C° 0.2 mm 3 mps 737 mmHg 80%
    21:00 +23°C° 0.2 mm 4 mps 737 mmHg 84%
    22:00 +22°C° 0.3 mm 3 mps 737 mmHg 86%
    23:00 +22°C° 0.3 mm 3 mps 737 mmHg 88%

    Tomorrow, 17 July, Tuesday

    Time Temperature Precipitation Wind Pressure Humidity
    00:00 +21°C° 0.3 mm 3 mps 737 mmHg 91%
    01:00 +21°C° 0.2 mm 3 mps 737 mmHg 92%
    02:00 +20°C° 0.2 mm 3 mps 736 mmHg 93%
    03:00 +20°C° 0.2 mm 3 mps 736 mmHg 94%
    04:00 +20°C° 0.2 mm 3 mps 736 mmHg 93%
    05:00 +20°C° 0.2 mm 4 mps 736 mmHg 93%
    06:00 +20°C° 0.2 mm 4 mps 736 mmHg 93%
    07:00 +20°C° 0.5 mm 4 mps 736 mmHg 92%
    08:00 +21°C° 0.5 mm 5 mps 735 mmHg 92%
    09:00 +21°C° 0.5 mm 5 mps 735 mmHg 92%
    10:00 +22°C° 0.3 mm 5 mps 735 mmHg 87%
    11:00 +22°C° 0.3 mm 6 mps 735 mmHg 83%
    12:00 +23°C° 0.3 mm 7 mps 735 mmHg 79%
    13:00 +23°C° 0.6 mm 6 mps 734 mmHg 81%
    14:00 +23°C° 0.6 mm 6 mps 734 mmHg 84%
    15:00 +22°C° 0.6 mm 6 mps 734 mmHg 87%
    16:00 +22°C° 0.7 mm 5 mps 734 mmHg 88%
    17:00 +22°C° 0.7 mm 5 mps 733 mmHg 90%
    18:00 +21°C° 0.7 mm 5 mps 733 mmHg 91%
    19:00 +21°C° 0.6 mm 5 mps 733 mmHg 92%
    20:00 +21°C° 0.6 mm 5 mps 733 mmHg 94%
    21:00 +20°C° 0.6 mm 4 mps 733 mmHg 95%
    22:00 +20°C° 0.2 mm 4 mps 732 mmHg 95%
    23:00 +19°C° 0.2 mm 4 mps 732 mmHg 96%

    Day after tomorrow, 18 July, Wednesday

    Time Temperature Precipitation Wind Pressure Humidity
    00:00 +19°C° 0.2 mm 3 mps 732 mmHg 96%
    01:00 +19°C° 0.1 mm 3 mps 732 mmHg 96%
    02:00 +18°C° 0.1 mm 3 mps 731 mmHg 97%
    03:00 +18°C° 0.1 mm 2 mps 731 mmHg 97%
    04:00 +18°C° 0.1 mm 2 mps 731 mmHg 97%
    05:00 +18°C° 0.1 mm 2 mps 731 mmHg 96%
    06:00 +18°C° 0.1 mm 2 mps 731 mmHg 96%
    07:00 +19°C° 0.1 mm 2 mps 731 mmHg 95%
    08:00 +19°C° 0.1 mm 2 mps 732 mmHg 94%
    09:00 +19°C° 0.1 mm 3 mps 732 mmHg 92%
    10:00 +20°C° 0.6 mm 3 mps 732 mmHg 90%
    11:00 +21°C° 0.6 mm 4 mps 732 mmHg 87%
    12:00 +22°C° 0.6 mm 4 mps 733 mmHg 84%
    13:00 +22°C° 1.3 mm 5 mps 733 mmHg 84%
    14:00 +22°C° 1.3 mm 6 mps 733 mmHg 85%
    15:00 +21°C° 1.3 mm 7 mps 733 mmHg 86%
    16:00 +21°C° 0.6 mm 6 mps 734 mmHg 87%
    17:00 +21°C° 0.6 mm 6 mps 734 mmHg 88%
    18:00 +20°C° 0.6 mm 6 mps 734 mmHg 89%
    19:00 +20°C° 0.5 mm 6 mps 734 mmHg 90%
    20:00 +20°C° 0.5 mm 5 mps 734 mmHg 90%
    21:00 +19°C° 0.5 mm 5 mps 735 mmHg 91%
    22:00 +19°C° 0.7 mm 5 mps 735 mmHg 91%
    23:00 +19°C° 0.7 mm 5 mps 735 mmHg 92%

    19 July, Thursday

    Time Temperature Precipitation Wind Pressure Humidity
    00:00 +19°C° 0.7 mm 5 mps 735 mmHg 92%
    01:00 +19°C° 0.1 mm 4 mps 735 mmHg 93%
    02:00 +19°C° 0.1 mm 4 mps 735 mmHg 93%
    03:00 +19°C° 0.1 mm 4 mps 735 mmHg 94%
    04:00 +19°C° 0.2 mm 4 mps 735 mmHg 94%
    05:00 +19°C° 0.2 mm 4 mps 735 mmHg 94%
    06:00 +19°C° 0.2 mm 4 mps 735 mmHg 95%
    07:00 +19°C° 0.4 mm 4 mps 736 mmHg 94%
    08:00 +20°C° 0.4 mm 4 mps 736 mmHg 93%
    09:00 +20°C° 0.4 mm 4 mps 736 mmHg 93%
    10:00 +21°C° 0.2 mm 5 mps 736 mmHg 90%
    11:00 +22°C° 0.2 mm 5 mps 737 mmHg 87%
    12:00 +23°C° 0.2 mm 5 mps 737 mmHg 84%
    13:00 +25°C° 0.7 mm 5 mps 737 mmHg 81%
    14:00 +24°C° 0.7 mm 6 mps 737 mmHg 78%
    15:00 +26°C° 0.7 mm 6 mps 737 mmHg 75%
    16:00 +26°C° 0.7 mm 5 mps 738 mmHg 77%
    17:00 +26°C° 0.7 mm 4 mps 738 mmHg 78%
    18:00 +26°C° 0.7 mm 4 mps 738 mmHg 80%
    19:00 +25°C° 0.1 mm 3 mps 738 mmHg 83%
    20:00 +24°C° 0.1 mm 3 mps 739 mmHg 85%
    21:00 +22°C° 0.1 mm 3 mps 739 mmHg 88%
    22:00 +21°C° 0.3 mm 3 mps 739 mmHg 89%
    23:00 +21°C° 0.3 mm 3 mps 739 mmHg 91%

    20 July, Friday

    Time Temperature Precipitation Wind Pressure Humidity
    00:00 +20°C° 0.3 mm 3 mps 739 mmHg 93%
    01:00 +20°C° 0 mm 3 mps 739 mmHg 93%
    02:00 +20°C° 0 mm 3 mps 739 mmHg 92%
    03:00 +19°C° 0 mm 3 mps 740 mmHg 92%
    04:00 +20°C° 0.6 mm 3 mps 740 mmHg 92%
    05:00 +20°C° 0.6 mm 3 mps 740 mmHg 92%
    06:00 +20°C° 0.6 mm 3 mps 740 mmHg 92%
    07:00 +21°C° 0.3 mm 3 mps 740 mmHg 88%
    08:00 +23°C° 0.3 mm 4 mps 740 mmHg 84%
    09:00 +25°C° 0.3 mm 4 mps 740 mmHg 80%
    10:00 +26°C° 0.5 mm 4 mps 740 mmHg 76%
    11:00 +27°C° 0.5 mm 4 mps 740 mmHg 71%
    12:00 +29°C° 0.5 mm 4 mps 740 mmHg 67%
    13:00 +29°C° 0.5 mm 4 mps 740 mmHg 65%
    14:00 +30°C° 0.5 mm 3 mps 740 mmHg 63%
    15:00 +30°C° 0.5 mm 2 mps 740 mmHg 61%
    16:00 +30°C° 0.9 mm 2 mps 740 mmHg 66%
    17:00 +29°C° 0.9 mm 1 mps 740 mmHg 70%
    18:00 +28°C° 0.9 mm 1 mps 740 mmHg 75%
    19:00 +27°C° 0.1 mm 1 mps 740 mmHg 78%
    20:00 +25°C° 0.1 mm 1 mps 740 mmHg 81%
    21:00 +24°C° 0.1 mm 1 mps 740 mmHg 84%
    22:00 +23°C° 0.4 mm 1 mps 740 mmHg 85%
    23:00 +23°C° 0.4 mm 1 mps 740 mmHg 86%

    21 July, Saturday

    Time Temperature Precipitation Wind Pressure Humidity
    00:00 +23°C° 0.4 mm 2 mps 740 mmHg 88%
    01:00 +21°C° 0.2 mm 2 mps 740 mmHg 89%
    02:00 +21°C° 0.2 mm 3 mps 740 mmHg 91%
    03:00 +20°C° 0.2 mm 3 mps 740 mmHg 93%
    04:00 +20°C° 0 mm 3 mps 740 mmHg 92%
    05:00 +21°C° 0 mm 3 mps 740 mmHg 91%
    06:00 +21°C° 0 mm 2 mps 740 mmHg 91%
    07:00 +23°C° 0 mm 2 mps 740 mmHg 85%
    08:00 +25°C° 0 mm 2 mps 740 mmHg 79%
    09:00 +27°C° 0 mm 2 mps 740 mmHg 74%
    10:00 +28°C° 0.8 mm 2 mps 740 mmHg 70%
    11:00 +29°C° 0.8 mm 2 mps 740 mmHg 66%
    12:00 +30°C° 0.8 mm 3 mps 740 mmHg 62%
    13:00 +30°C° 0.1 mm 3 mps 740 mmHg 59%
    14:00 +30°C° 0.1 mm 3 mps 740 mmHg 57%
    15:00 +31°C° 0.1 mm 3 mps 740 mmHg 55%
    16:00 +30°C° 0 mm 3 mps 740 mmHg 59%
    17:00 +30°C° 0 mm 3 mps 740 mmHg 63%
    18:00 +30°C° 0 mm 3 mps 740 mmHg 67%
    19:00 +28°C° 0.8 mm 2 mps 740 mmHg 73%
    20:00 +26°C° 0.8 mm 2 mps 740 mmHg 79%
    21:00 +24°C° 0.8 mm 2 mps 740 mmHg 85%
    22:00 +24°C° 0.8 mm 2 mps 740 mmHg 87%
    23:00 +22°C° 0.8 mm 3 mps 740 mmHg 89%
    Show more